Terminal Aerodrome Forecast
Issued by NWS

Home | Current Version | Previous Version | Graphics & Text | Print | Product List | Glossary On
Versions: 1 2 3 4 5 6 7 8 9 10 11 12 13 14 15 16 17 18 19 20
000
FTUS43 KFGF 151700
TAFBJI
TAF
KBJI 151720Z 1518/1618 34012G18KT P6SM OVC008
      TEMPO 1518/1519 6SM BR
     FM152100 33015G23KT P6SM OVC010
     FM161200 33013KT P6SM OVC010=

USA.gov is the U.S. government's official web portal to all federal, state and local government web resources and services.